This demonstration page uses our WeatherBlox Daily Observations layout. Learn more.

Left ArrowRight Arrow

34.74481, -87.66753

Hourly Observations for May 10, 2019

Temp ( °F °C ) Dew Point ( °F °C ) Humidity (%) Winds ( mph kmh ) Pressure ( in mb ) Visibility ( mi km ) Precip ( " mm )
12:53 am 00:53 Cloudy 67 19.4 63 17.2 87 87 SW 6 9 30.00 1016 10 16 0.00 0.00
1:53 am 01:53 Cloudy 66 18.9 63 17.2 90 90 Calm 29.98 1015 10 16 0.00 0.00
2:53 am 02:53 Cloudy 66 18.9 63 17.2 90 90 WSW 5 7 29.99 1016 10 16 0.00 0.00
3:53 am 03:53 Cloudy 66 18.9 63 17.2 90 90 W 6 9 29.99 1016 10 16 0.00 0.00
4:53 am 04:53 Cloudy 65 18.3 63 17.2 93 93 Calm 30.00 1016 10 16 0.00 0.00
5:53 am 05:53 Cloudy 66 18.9 63 17.2 90 90 Calm 30.01 1016 10 16 0.00 0.00
6:53 am 06:53 Cloudy 66 18.9 63 17.2 90 90 Calm 30.04 1017 10 16 0.00 0.00
7:53 am 07:53 Cloudy 66 18.9 63 17.2 90 90 Calm 30.06 1018 10 16 0.00 0.00
8:19 am 08:19 Cloudy 67 19.4 63 17.2 87 87 Calm 30.06 1018 10 16 0.00 0.00
8:53 am 08:53 Cloudy 67 19.4 64 17.8 91 91 NE 3 6 30.04 1017 10 16 0.00 0.00
9:53 am 09:53 Cloudy 68 20 64 17.8 87 87 Calm 30.06 1018 10 16 0.00 0.00
10:34 am 10:34 Cloudy 69 20.6 64 17.8 84 84 Calm 30.09 1019 10 16 0.00 0.00
10:53 am 10:53 Cloudy 71 21.7 65 18.3 81 81 NW 3 6 30.07 1018 10 16 0.00 0.00
11:45 am 11:45 Cloudy 72 22.2 64 17.8 76 76 Calm 30.07 1018 10 16 0.00 0.00
11:53 am 11:53 Cloudy 72 22.2 64 17.8 76 76 NW 3 6 30.07 1018 10 16 0.00 0.00
12:20 pm 12:20 Cloudy 73 22.8 64 17.8 74 74 Calm 30.07 1018 10 16 0.00 0.00
12:53 pm 12:53 Cloudy 73 22.8 64 17.8 74 74 ENE 3 6 30.06 1018 10 16 0.00 0.00
1:53 pm 13:53 Mostly Cloudy 75 23.9 64 17.8 69 69 Calm 30.05 1018 10 16 0.00 0.00
2:12 pm 14:12 Partly Cloudy 74 23.3 64 17.8 71 71 Calm 30.04 1017 10 16 0.00 0.00
2:53 pm 14:53 Partly Cloudy 75 23.9 64 17.8 69 69 E 6 9 30.03 1017 10 16 0.00 0.00
3:53 pm 15:53 Mostly Cloudy 75 23.9 65 18.3 71 71 Calm 30.03 1017 10 16 0.00 0.00
4:53 pm 16:53 Cloudy with Heavy Rain 72 22.2 65 18.3 79 79 SSW 5 7 30.04 1017 7 11 0.04 1.02
5:53 pm 17:53 Cloudy with Light Rain 71 21.7 68 20 90 90 Calm 30.00 1016 10 16 0.07 1.78
6:53 pm 18:53 Cloudy with Light Rain 70 21.1 67 19.4 90 90 NE 5 7 29.99 1016 10 16 0.01 0.25
7:53 pm 19:53 Cloudy with Light Rain 70 21.1 68 20 93 93 Calm 30.01 1016 10 16 0.01 0.25
8:53 pm 20:53 Cloudy with Light Rain 70 21.1 67 19.4 90 90 NE 6 9 30.02 1017 10 16 0.03 0.76
9:20 pm 21:20 Cloudy with Light Rain 69 20.6 67 19.4 93 93 Calm 30.03 1017 10 16 0.02 0.51
9:49 pm 21:49 Cloudy with Light Rain 70 21 66 19 88 88 Calm 30.04 1017 10 16 0.04 1.02
9:53 pm 21:53 Cloudy with Light Rain 69 20.6 67 19.4 93 93 WNW 3 6 30.03 1017 10 16 0.04 1.02
10:14 pm 22:14 Cloudy with Light Rain 69 20.6 67 19.4 93 93 Calm 30.04 1017 8 13 0.04 1.02
10:41 pm 22:41 Cloudy with Light Rain 69 20.6 67 19.4 93 93 WNW 5 7 30.03 1017 10 16 0.05 1.27
10:53 pm 22:53 Cloudy with Light Rain 69 20.6 67 19.4 93 93 Calm 30.02 1017 10 16 0.05 1.27
11:07 pm 23:07 Cloudy with Light Rain 69 20.6 67 19.4 93 93 VRB 5 7 30.03 1017 8 13 0.03 0.76
11:14 pm 23:14 Cloudy with Light Rain 68 20 66 18.9 93 93 NNW 6 9 30.02 1017 10 16 0.04 1.02
11:53 pm 23:53 Cloudy 67 19.4 64 17.8 91 91 NNE 6 9 30.01 1016 10 16 0.04 1.02

Powered by AerisWeather